Regional Weather Roundup
Issued by NWS

Home | Current Version | Previous Version | Graphics & Text | Print | Product List | Glossary On
Versions: 1 2 3 4 5 6 7 8 9 10 11 12 13 14 15 16 17 18 19 20 21 22 23 24 25 26 27 28 29 30 31 32 33 34 35 36 37 38 39 40 41 42 43 44 45 46 47 48 49 50
000
ASUS43 KFSD 230102
RWRSD

WEATHER ROUNDUP FOR SOUTH DAKOTA
NATIONAL WEATHER SERVICE SIOUX FALLS SD
800 PM CDT TUE APR 22 2014

NOTE: "FAIR" INDICATES FEW OR NO CLOUDS BELOW 12,000 FEET WITH NO
SIGNIFICANT WEATHER AND/OR OBSTRUCTIONS TO VISIBILITY.


SDZ001>005-009-010-012>017-230200-
NORTHWEST AND NORTH CENTRAL SOUTH DAKOTA

CITY           SKY/WX    TMP DP  RH WIND       PRES   REMARKS
MOBRIDGE       CLOUDY    61  29  29 SE29G38   29.74F
$$

SDZ012>016-024>037-041>051-057-063-072>074-230200-
SOUTHWEST AND SOUTH CENTRAL SOUTH DAKOTA

CITY           SKY/WX    TMP DP  RH WIND       PRES   REMARKS
RAPID CTY ARPT CLOUDY    70  42  36 S14       29.60F
PIERRE         CLOUDY    64  32  30 SE26G35   29.69F
CUSTER         CLOUDY    58  39  49 SW6       29.73F
ELLSWORTH AFB  CLOUDY    70  44  39 S15       29.59F
PHILIP         CLOUDY    73  39  29 SE13      29.59F
PINE RIDGE     CLOUDY    60  53  77 S8        29.68F
WINNER         FAIR      70  33  25 SE23      29.73F
$$

SDZ004>011-016>023-039-040-230200-
NORTHEAST SOUTH DAKOTA

CITY           SKY/WX    TMP DP  RH WIND       PRES   REMARKS
ABERDEEN       CLOUDY    60  33  36 SE13      29.88F
WATERTOWN      CLOUDY    60  32  34 SE8       29.93S
SISSETON         N/A     58  33  39 SE12      29.94F
$$

SDZ017-020-022-023-036>040-048>070-230200-
SOUTHEAST SOUTH DAKOTA

CITY           SKY/WX    TMP DP  RH WIND       PRES   REMARKS
SIOUX FALLS    MOCLDY    62  31  31 SE15      29.94F
HURON          CLOUDY    62  30  29 SE15G23   29.86F
CHAMBERLAIN      N/A     67  33  28 SE21      29.77F
MITCHELL       MOCLDY    62  31  31 SE22G32   29.88F
YANKTON        MOCLDY    64  30  27 E15G21    29.93F
$$

ABBREVIATIONS USED IN REMARKS
   TC - TEMPERATURE IN CELSIUS
  WCI - WIND CHILL INDEX
   HX - HEAT INDEX
  VSB - VISIBILITY




USA.gov is the U.S. government's official web portal to all federal, state and local government web resources and services.